When you browse on this site, cookies collect data to enhance your experience and personalize the content and advertising you see.
Visit our Privacy Policy to learn more. By continuing to use the site, you agree to this use of cookies and data.
  • Em Portugal
  • Lista de países
  • Para 7 dias
  • Temperatura da água
  • Mapa do tempo
  • Widgets de tempo
  • user-avatar
    Iniciar Sessão

    Previsão horária em Carryduff

    Hoje, 17 Setembro, Terça-feira

    Tempo Temperatura Precipitação Vento Pressão Humidade
    00:00 +12°C° 0 mm 3 m/s 766 mmHg 82%
    01:00 +12°C° 0 mm 3 m/s 766 mmHg 83%
    02:00 +11°C° 0 mm 3 m/s 766 mmHg 85%
    03:00 +10°C° 0 mm 3 m/s 766 mmHg 87%
    04:00 +10°C° 0 mm 3 m/s 766 mmHg 87%
    05:00 +10°C° 0 mm 3 m/s 766 mmHg 87%
    06:00 +10°C° 0 mm 3 m/s 766 mmHg 87%
    07:00 +11°C° 0 mm 3 m/s 767 mmHg 82%
    08:00 +12°C° 0 mm 3 m/s 767 mmHg 78%
    09:00 +14°C° 0 mm 3 m/s 767 mmHg 74%
    10:00 +16°C° 0 mm 3 m/s 767 mmHg 71%
    11:00 +17°C° 0 mm 4 m/s 767 mmHg 67%
    12:00 +17°C° 0 mm 4 m/s 767 mmHg 64%
    13:00 +18°C° 0 mm 3 m/s 767 mmHg 64%
    14:00 +18°C° 0 mm 3 m/s 767 mmHg 64%
    15:00 +18°C° 0 mm 3 m/s 767 mmHg 64%
    16:00 +17°C° 0 mm 3 m/s 767 mmHg 70%
    17:00 +16°C° 0 mm 3 m/s 767 mmHg 75%
    18:00 +14°C° 0 mm 3 m/s 767 mmHg 80%
    19:00 +13°C° 0 mm 3 m/s 768 mmHg 81%
    20:00 +12°C° 0 mm 4 m/s 768 mmHg 82%
    21:00 +10°C° 0 mm 4 m/s 769 mmHg 83%
    22:00 +10°C° 0 mm 4 m/s 769 mmHg 83%
    23:00 +10°C° 0 mm 4 m/s 769 mmHg 83%

    Amanhã, 18 Setembro, Quarta-feira

    Tempo Temperatura Precipitação Vento Pressão Humidade
    00:00 +8°C° 0 mm 4 m/s 769 mmHg 83%
    01:00 +9°C° 0 mm 3 m/s 769 mmHg 84%
    02:00 +8°C° 0 mm 3 m/s 769 mmHg 86%
    03:00 +8°C° 0 mm 2 m/s 769 mmHg 87%
    04:00 +8°C° 0 mm 2 m/s 770 mmHg 87%
    05:00 +7°C° 0 mm 2 m/s 770 mmHg 87%
    06:00 +7°C° 0 mm 2 m/s 770 mmHg 87%
    07:00 +9°C° 0 mm 2 m/s 770 mmHg 81%
    08:00 +12°C° 0 mm 2 m/s 770 mmHg 75%
    09:00 +14°C° 0 mm 2 m/s 771 mmHg 68%
    10:00 +15°C° 0 mm 2 m/s 770 mmHg 65%
    11:00 +16°C° 0 mm 1 m/s 770 mmHg 61%
    12:00 +18°C° 0 mm 1 m/s 770 mmHg 58%
    13:00 +19°C° 0 mm 1 m/s 770 mmHg 57%
    14:00 +19°C° 0 mm 1 m/s 770 mmHg 57%
    15:00 +20°C° 0 mm 1 m/s 770 mmHg 57%
    16:00 +18°C° 0 mm 1 m/s 770 mmHg 63%
    17:00 +16°C° 0 mm 1 m/s 770 mmHg 70%
    18:00 +15°C° 0 mm 1 m/s 770 mmHg 76%
    19:00 +14°C° 0 mm 1 m/s 770 mmHg 78%
    20:00 +13°C° 0 mm 1 m/s 770 mmHg 80%
    21:00 +13°C° 0 mm 1 m/s 771 mmHg 82%
    22:00 +12°C° 0 mm 1 m/s 771 mmHg 83%
    23:00 +12°C° 0 mm 1 m/s 771 mmHg 84%

    Depois de amanhã, 19 Setembro, Quinta-feira

    Tempo Temperatura Precipitação Vento Pressão Humidade
    00:00 +12°C° 0 mm 1 m/s 771 mmHg 84%
    01:00 +12°C° 0 mm 2 m/s 771 mmHg 84%
    02:00 +10°C° 0 mm 2 m/s 771 mmHg 84%
    03:00 +10°C° 0 mm 2 m/s 770 mmHg 84%
    04:00 +10°C° 0 mm 2 m/s 770 mmHg 84%
    05:00 +10°C° 0 mm 2 m/s 771 mmHg 84%
    06:00 +10°C° 0 mm 2 m/s 771 mmHg 85%
    07:00 +12°C° 0 mm 2 m/s 771 mmHg 80%
    08:00 +14°C° 0 mm 2 m/s 771 mmHg 76%
    09:00 +16°C° 0 mm 2 m/s 771 mmHg 71%
    10:00 +17°C° 0 mm 2 m/s 771 mmHg 69%
    11:00 +18°C° 0 mm 2 m/s 771 mmHg 67%
    12:00 +21°C° 0 mm 1 m/s 771 mmHg 65%
    13:00 +21°C° 0 mm 1 m/s 771 mmHg 64%
    14:00 +21°C° 0 mm 1 m/s 770 mmHg 64%
    15:00 +22°C° 0 mm 1 m/s 770 mmHg 64%
    16:00 +20°C° 0 mm 1 m/s 770 mmHg 70%
    17:00 +19°C° 0 mm 1 m/s 770 mmHg 75%
    18:00 +18°C° 0 mm 1 m/s 770 mmHg 81%
    19:00 +16°C° 0 mm 1 m/s 770 mmHg 83%
    20:00 +15°C° 0 mm 2 m/s 770 mmHg 85%
    21:00 +14°C° 0 mm 2 m/s 770 mmHg 87%
    22:00 +14°C° 0 mm 2 m/s 770 mmHg 87%
    23:00 +14°C° 0 mm 2 m/s 769 mmHg 88%

    20 Setembro, Sexta-feira

    Tempo Temperatura Precipitação Vento Pressão Humidade
    00:00 +13°C° 0 mm 2 m/s 769 mmHg 88%
    01:00 +13°C° 0 mm 2 m/s 769 mmHg 89%
    02:00 +13°C° 0 mm 2 m/s 769 mmHg 90%
    03:00 +12°C° 0 mm 2 m/s 768 mmHg 90%
    04:00 +12°C° 0 mm 2 m/s 768 mmHg 91%
    05:00 +11°C° 0 mm 3 m/s 768 mmHg 91%
    06:00 +10°C° 0 mm 3 m/s 767 mmHg 92%
    07:00 +12°C° 0 mm 4 m/s 767 mmHg 87%
    08:00 +13°C° 0 mm 4 m/s 767 mmHg 83%
    09:00 +15°C° 0 mm 5 m/s 767 mmHg 78%
    10:00 +16°C° 0 mm 5 m/s 766 mmHg 72%
    11:00 +17°C° 0 mm 5 m/s 766 mmHg 67%
    12:00 +19°C° 0 mm 6 m/s 765 mmHg 61%
    13:00 +19°C° 0 mm 6 m/s 765 mmHg 59%
    14:00 +20°C° 0 mm 6 m/s 764 mmHg 57%
    15:00 +20°C° 0 mm 6 m/s 763 mmHg 56%
    16:00 +19°C° 0 mm 6 m/s 762 mmHg 59%
    17:00 +17°C° 0 mm 6 m/s 762 mmHg 62%
    18:00 +15°C° 0 mm 5 m/s 761 mmHg 66%
    19:00 +15°C° 0 mm 6 m/s 761 mmHg 65%
    20:00 +14°C° 0 mm 6 m/s 761 mmHg 63%
    21:00 +14°C° 0 mm 6 m/s 760 mmHg 62%
    22:00 +13°C° 0 mm 6 m/s 760 mmHg 65%
    23:00 +13°C° 0 mm 6 m/s 759 mmHg 68%

    21 Setembro, Sábado

    Tempo Temperatura Precipitação Vento Pressão Humidade
    00:00 +13°C° 0 mm 5 m/s 759 mmHg 71%
    01:00 +12°C° 0 mm 5 m/s 758 mmHg 74%
    02:00 +12°C° 0 mm 5 m/s 758 mmHg 77%
    03:00 +12°C° 0 mm 5 m/s 757 mmHg 80%
    04:00 +10°C° 0 mm 5 m/s 756 mmHg 81%
    05:00 +11°C° 0 mm 4 m/s 756 mmHg 81%
    06:00 +11°C° 0 mm 4 m/s 755 mmHg 82%
    07:00 +12°C° 0 mm 5 m/s 755 mmHg 79%
    08:00 +14°C° 0 mm 5 m/s 755 mmHg 75%
    09:00 +16°C° 0 mm 5 m/s 755 mmHg 71%
    10:00 +17°C° 0.1 mm 6 m/s 754 mmHg 71%
    11:00 +20°C° 0.1 mm 7 m/s 754 mmHg 71%
    12:00 +21°C° 0.1 mm 7 m/s 753 mmHg 71%
    13:00 +21°C° 0.3 mm 7 m/s 753 mmHg 75%
    14:00 +21°C° 0.3 mm 7 m/s 752 mmHg 78%
    15:00 +20°C° 0.3 mm 7 m/s 752 mmHg 81%
    16:00 +20°C° 0.4 mm 7 m/s 752 mmHg 86%
    17:00 +19°C° 0.4 mm 6 m/s 752 mmHg 90%
    18:00 +19°C° 0.4 mm 5 m/s 752 mmHg 95%
    19:00 +17°C° 0 mm 5 m/s 752 mmHg 95%
    20:00 +16°C° 0 mm 5 m/s 752 mmHg 95%
    21:00 +16°C° 0 mm 5 m/s 752 mmHg 95%
    22:00 +16°C° 0 mm 5 m/s 752 mmHg 95%
    23:00 +15°C° 0 mm 5 m/s 752 mmHg 96%

    22 Setembro, Domingo

    Tempo Temperatura Precipitação Vento Pressão Humidade
    00:00 +15°C° 0 mm 5 m/s 752 mmHg 96%
    01:00 +15°C° 1.3 mm 5 m/s 752 mmHg 96%
    02:00 +15°C° 1.3 mm 5 m/s 752 mmHg 96%
    03:00 +15°C° 1.3 mm 5 m/s 752 mmHg 96%
    04:00 +14°C° 0.6 mm 5 m/s 752 mmHg 95%
    05:00 +14°C° 0.6 mm 5 m/s 753 mmHg 94%
    06:00 +13°C° 0.6 mm 5 m/s 753 mmHg 94%
    07:00 +14°C° 0.1 mm 5 m/s 753 mmHg 91%
    08:00 +15°C° 0.1 mm 6 m/s 754 mmHg 89%
    09:00 +16°C° 0.1 mm 7 m/s 754 mmHg 86%
    10:00 +16°C° 0.3 mm 7 m/s 755 mmHg 81%
    11:00 +17°C° 0.3 mm 7 m/s 755 mmHg 76%
    12:00 +17°C° 0.3 mm 7 m/s 756 mmHg 71%
    13:00 +17°C° 0 mm 7 m/s 756 mmHg 70%
    14:00 +17°C° 0 mm 7 m/s 756 mmHg 70%
    15:00 +17°C° 0 mm 6 m/s 757 mmHg 69%
    16:00 +16°C° 0 mm 6 m/s 757 mmHg 74%
    17:00 +15°C° 0 mm 5 m/s 758 mmHg 79%
    18:00 +14°C° 0 mm 4 m/s 758 mmHg 84%
    19:00 +13°C° 0 mm 4 m/s 759 mmHg 86%
    20:00 +13°C° 0 mm 4 m/s 759 mmHg 88%
    21:00 +12°C° 0 mm 4 m/s 760 mmHg 90%
    22:00 +12°C° 0 mm 4 m/s 760 mmHg 90%
    23:00 +12°C° 0 mm 4 m/s 760 mmHg 91%
    Mostrar mais